Regional Weather Roundup
Issued by NWS Newport/Morehead, NC

Current Version | Previous Version | Graphics & Text | Print | Product List | Glossary Off
Versions: 1 2 3 4 5 6 7 8 9 10 11 12 13 14 15 16 17 18 19 20 21 22 23 24 25 26 27 28 29 30 31 32 33 34 35 36 37 38 39 40 41 42 43 44 45 46 47 48 49 50
000 ASUS42 KMHX 230613 RWRMHX WEATHER ROUNDUP FOR EASTERN NORTH CAROLINA NATIONAL WEATHER SERVICE NEWPORT/MOREHEAD CITY NC 100 AM EST THU FEB 23 2017 NOTE: "FAIR" INDICATES FEW OR NO CLOUDS BELOW 12,000 FEET WITH NO SIGNIFICANT WEATHER AND/OR OBSTRUCTIONS TO VISIBILITY NCZ015>017-031-032-045>047-102-103-230700- NORTH COAST CITY SKY/WX TMP DP RH WIND PRES REMARKS EDENTON CLOUDY 55 51 88 CALM 29.95S ELIZABETH CITY CLOUDY 53 50 89 CALM 29.95S KITTY HAWK NOT AVBL MANTEO MOCLDY 59 53 80 S5 29.95S $$ NCZ045>047-081-094-103-104-230700- CENTRAL COAST CITY SKY/WX TMP DP RH WIND PRES REMARKS FRISCO LGT RAIN 62 58 86 SW3 29.95F FOG $$ NCZ095-097-098-100-101-230700- SOUTHERN COAST CITY SKY/WX TMP DP RH WIND PRES REMARKS BEAUFORT PTCLDY 55 53 93 CALM 29.93F CEDAR ISLAND NOT AVBL JACKSONVILLE MOCLDY 55 54 96 CALM 29.92S PINEY ISLAND CLOUDY N/A N/A N/A NE6 29.93F WILMINGTON MOCLDY 55 54 96 CALM 29.91F $$ NCZ011>013-027>030-043-044-078>080-089-090>093-098-230700- COASTAL PLAIN CITY SKY/WX TMP DP RH WIND PRES REMARKS AHOSKIE N/A 53 51 93 CALM 29.95R CLINTON CLOUDY 55 53 93 CALM 29.93S ELIZABETHTOWN CLOUDY 55 53 95 CALM 29.92R GOLDSBORO CLOUDY 56 55 97 CALM 29.91S GREENVILLE PTCLDY 59 54 82 CALM 29.96S HAVELOCK NOT AVBL KENANSVILLE NOT AVBL KINSTON PTCLDY 52 51 95 CALM 29.94S NEW BERN CLOUDY 52 51 97 CALM 29.94F RICHLANDS CLOUDY 51 50 96 CALM 29.93S ROCKY MOUNT CLOUDY 53 52 96 CALM 29.94S WASHINGTON PTCLDY 54 51 89 CALM 29.94F WHITEVILLE PTCLDY 57 53 86 CALM 29.90S $$ AMZ130-135-150-152-154-156-158-170-250-252-270-ANZ085-086-088-633-658-670-230700- MARINE OBSERVATIONS STATION/POSITION TIME TEMP WIND PRES WAVE SWELL AIR SEA DIR/SP/G HT/PER HT/PER (UTC) (F) (DEG/KT/KT) (MB) (FT/S) (FT/S) CHESAPEAKE LIGHT NOT AVBL 64 E VA BEACH 0550 58 54 170/ 6/ 6 1014.1 4/11 3/11 DUCK 0548 57 48 200/ 5/ 6 1013.5 2 E DUCK 0600 50 N/A 3/11 2/11 OREGON INLET 0542 53 55 120/ 1/ 2 1014.1 13E OREGON INLT NOT AVBL HATTERAS CG 0548 61 61 90/ 5/ 6 1013.8 DIAMOND BUOY 0550 68 74 160/ 14/ 16 1014.0 3/10 3/10 CAPE LOOKOUT 0600 64 130/ 7/ 7 1013.1 BEAUFORT LAB 0548 57 55 10/ 1/ 1 1012.5 30 SE NEW RVR IN 0508 68 150/ 10/ 14 1013.3 30 SE NEW RVR IN 0543 69 N/A 4/11 2/11 27 SE WRIGHTSVLE 0508 67 65 130/ 10/ 12 1012.0 5 SE WRIGHTSVLE 0508 60 58 50/ 6/ 8 1012.8 225 S CAPE HAT 0550 67 70 110/ 19/ 23 1012.8 6/10 3/10 41 SE CHARLESTON 0550 70 69 110/ 16/ 19 1009.9 6/ 7 3/10 $$

USA.gov is the U.S. government's official web portal to all federal, state and local government web resources and services.